#timestamp,LO_Frequency,Hit 
1503140415.7,286046997.9,N
1503140435.6,286046997.3,N
1503140455.4,286046997.9,N
1503140475.2,286046994.9,N
1503140495.1,286046997.8,N
1503140496.0,286046997.8,N
1503140515.8,286046996.8,N
1503140535.6,286046997.1,N
1503140555.5,286046996.1,N
1503140575.3,286046997.6,N
1503140595.1,286046995.4,N
1503140615.9,286046995.8,N
1503140635.7,286046997.1,N
1503140655.6,286046995.0,N
1503140675.4,286046996.1,N
1503140695.2,286046996.1,N
1503140715.1,286046993.8,P
1503140716.0,286046993.8,P
1503140735.8,286047001.1,N
1503140755.6,286046999.7,N
1503140775.5,286047002.4,N
1503140795.3,286046999.2,N
1503140815.1,286046997.7,N
1503140835.9,286046995.3,N
1503140855.7,286046993.4,N
1503140875.5,286046994.1,N
1503140895.4,286046993.4,N
1503140915.2,286046995.5,N
1503140935.0,286046996.0,N
1503140935.9,286046996.0,N
1503140955.8,286046994.6,N
1503140975.6,286046991.9,N
1503140995.4,286046994.6,N
1503141015.2,286046992.1,N
1503141035.1,286046994.8,N
1503141036.0,286046994.8,N
1503141055.8,286046990.4,P
1503141075.7,286046996.8,N
1503141095.5,286046994.9,N
1503141115.3,286046993.7,N
1503141135.1,286046997.6,N
1503141155.9,286046994.1,N
1503141175.7,286046994.6,N
1503141195.6,286046993.6,P
1503141215.4,286046999.4,N
1503141235.2,286046996.9,N
1503141255.0,286046999.4,N
1503141256.0,286046999.4,N
1503141275.8,286046996.5,N
1503141295.6,286047000.5,N
1503141315.4,286047000.0,N
1503141335.3,286047002.7,N
1503141355.1,286046999.8,N
1503141375.8,286046999.9,N
1503141395.7,286047000.2,N
1503141415.5,286047001.5,N
1503141435.3,286047003.7,N
1503141455.2,286047003.5,N
1503141475.9,286047001.3,N
1503141495.7,286047001.4,N
1503141515.6,286047002.7,N
1503141535.4,286046998.3,N
1503141555.2,286047000.9,N
1503141575.0,286047002.6,N
1503141575.9,286047002.6,N
1503141595.8,286047002.6,N
1503141615.9,286047001.9,N
1503141635.7,286047001.1,N
1503141655.6,286047000.8,N
1503141675.5,286047000.3,N
1503141695.3,286047001.2,N
1503141715.1,286047002.7,N
1503141735.8,286046996.5,N
1503141755.7,286046997.0,N
1503141775.5,286046998.7,N
1503141795.3,286046998.4,N
1503141815.2,286046995.3,N
1503141835.9,286046993.6,N
1503141855.7,286046993.8,N
1503141875.6,286046993.3,N
1503141895.4,286046993.3,N
1503141915.2,286046995.5,N
1503141935.1,286046995.8,N
1503141936.0,286046995.8,N
1503141955.8,286046994.5,N
1503141975.6,286046991.8,N
1503141995.5,286046994.3,N
1503142015.3,286046992.2,N
1503142035.1,286046995.9,N
1503142055.8,286046994.6,N
1503142075.7,286046995.9,N
1503142095.5,286046995.2,N
1503142115.3,286046995.5,N
1503142135.2,286046995.5,N
1503142155.0,286046991.8,N
1503142155.9,286046991.8,N
1503142175.7,286046993.8,N
1503142195.6,286046991.8,N
1503142215.4,286046990.2,P
1503142235.2,286046997.2,N
1503142255.1,286046997.6,N
1503142256.0,286046997.6,N
1503142275.8,286046997.2,N
1503142295.6,286046994.9,N
1503142315.5,286046999.5,N
1503142335.3,286047002.8,N
1503142355.1,286047000.1,N
1503142375.9,286047002.4,N
1503142395.7,286046998.6,N
1503142415.5,286047002.8,N
1503142435.4,286047001.7,N
1503142455.2,286047002.0,N
1503142475.0,286046998.3,N
1503142475.9,286046998.3,N
1503142495.8,286047000.4,N
1503142515.6,286046999.7,N
1503142535.4,286046998.9,N
1503142555.2,286046999.8,N
1503142575.1,286046996.6,N
1503142576.0,286046996.6,N
1503142595.8,286046998.5,N
1503142615.6,286046999.9,N
1503142635.5,286047001.2,N
1503142655.5,286046999.5,N
1503142675.3,286046995.7,N
1503142695.2,286046995.4,N
1503142715.9,286046995.3,N
1503142735.7,286046997.5,N
1503142755.5,286046998.9,N
1503142775.4,286046998.2,N
1503142795.2,286046995.8,N
1503142815.0,286046996.1,N
1503142815.9,286046996.1,N
1503142835.8,286046995.7,N
1503142855.6,286046993.5,N
1503142875.4,286046994.1,N
1503142895.3,286046993.5,N
1503142915.1,286046997.8,N
1503142916.0,286046997.8,N
1503142935.8,286046996.5,N
1503142955.7,286046996.6,N
1503142975.5,286046998.6,N
1503142995.3,286046998.5,N
1503143015.2,286046996.9,N
1503143035.9,286046999.1,N
1503143055.7,286047001.1,N
1503143075.5,286046998.7,N
1503143095.4,286046998.0,N
1503143115.2,286046996.2,N
1503143135.0,286046994.6,N
1503143135.9,286046994.6,N
1503143155.8,286046996.0,N
1503143175.6,286046995.4,N
1503143195.4,286046993.6,P
1503143215.3,286046999.3,N
1503143235.1,286046996.5,N
1503143255.8,286047001.1,N
1503143275.7,286046998.9,N
1503143295.5,286046995.1,N
1503143315.3,286046996.1,N
1503143335.2,286046998.0,N
1503143355.9,286046998.8,N
1503143375.7,286046998.3,N
1503143395.6,286047000.9,N
1503143415.4,286047000.9,N
1503143435.2,286046998.7,N
1503143455.0,286046998.3,N
1503143456.0,286046998.3,N
1503143475.8,286046999.1,N
1503143495.6,286046996.6,N
1503143515.4,286046999.6,N
1503143535.3,286046997.7,N
1503143555.1,286046997.2,N
1503143575.8,286046996.8,N
1503143595.7,286046997.5,N
1503143615.5,286046993.7,P
1503143635.3,286046996.8,N
1503143655.2,286046999.1,N
1503143675.9,286046998.8,N
1503143695.7,286046997.7,N
1503143715.6,286046997.1,N
1503143735.4,286046998.0,N
1503143755.2,286046996.7,N
1503143775.1,286046999.4,N
1503143776.0,286046999.4,N
1503143795.8,286046996.8,N
1503143815.6,286046996.7,N
1503143835.5,286046996.8,N
1503143855.3,286046997.2,N
1503143875.1,286046996.6,N
1503143895.8,286046998.4,N
1503143915.7,286046999.4,N
1503143935.5,286046996.8,N
1503143955.3,286046997.4,N
1503143975.2,286046995.3,P
1503143995.0,286046998.4,N
1503143995.9,286046998.4,N
